Dati Storici

Data ora Umidita' aria (%) Temperatura aria (°C) Rad globale (W/m²) Gonioanemometro (°) Tacoanemometro (m/s) Pioggia (mm)
19-06-2020 02:10 97.6 % 17.068 20.027 -0.005 0 0
19-06-2020 02:00 97.6 % 17.04 343.515 -0.005 0 0
19-06-2020 01:50 97.6 % 17.056 345.187 -0.004 0 0
19-06-2020 01:40 97.6 % 17.042 333.372 -0.004 0 0
19-06-2020 01:30 97.6 % 17.12 12.787 -0.006 0 0
19-06-2020 01:20 97.6 % 17.248 4.448 -0.005 0 0
19-06-2020 01:10 97.6 % 17.304 38.281 -0.005 0 0
19-06-2020 01:00 97.6 % 17.235 9.768 -0.005 0 0
19-06-2020 00:50 97.6 % 17.188 10.735 -0.002 0 0
19-06-2020 00:40 97.6 % 17.123 41.811 -0.005 0 0
19-06-2020 00:30 97.6 % 17.069 12.03 1.463 0 0
19-06-2020 00:20 97.6 % 17.128 25.875 1.387 0 0
19-06-2020 00:10 97.6 % 17.149 51.307 0.17 0 0
19-06-2020 00:00 97.6 % 17.177 88.265 -0.005 0 0
18-06-2020 23:50 97.6 % 17.132 76.018 -0.002 0 0
18-06-2020 23:40 97.6 % 17.17 5.64 0.924 0 0
18-06-2020 23:30 97.7 % 17.176 14.68 1.781 0 0
18-06-2020 23:20 97.7 % 17.266 10.403 0.019 0 0
18-06-2020 23:10 97.7 % 17.376 281.946 -0.003 0 0
18-06-2020 23:00 97.7 % 17.46 345.24 -0 0 0

I dati sono presentati in modo automatico a scopo informativo. In seguito a verifica i dati possono subire modifiche o essere invalidati e non riportati negli archivi definitivi.